Weather History for Macomb, IL

Change the Weather History Date:

Friday, April 26, 2013

  Actual Average (KBRL) Record (KBRL)
Temperature  
Mean Temperature 54 °F 57 °F  
Max Temperature 65 °F 68 °F 92 °F (1986)
Min Temperature 44 °F 46 °F 31 °F (1950)
Degree Days  
Heating Degree Days 10 9  
Month to date heating degree days 326  
Since 1 July heating degree days 5432  
Cooling Degree Days 0 1  
Month to date cooling degree days 16  
Year to date cooling degree days 18  
Growing Degree Days 4 (Base 50)    
Moisture  
Dew Point 42 °F    
Average Humidity 63    
Maximum Humidity 80    
Minimum Humidity 47    
Precipitation  
Precipitation 0.00 in 0.14 in 0.77 in (1959)
Month to date precipitation 3.14  
Year to date precipitation 8.79  
Sea Level Pressure  
Sea Level Pressure 30.29 in    
Wind  
Wind Speed 11 mph (South)    
Max Wind Speed 24 mph    
Max Gust Speed 31 mph    
Visibility 10 miles    
Events      
T = Trace of Precipitation, MM = Missing Value Source: NWS Daily Summary

Daily Weather History Graph

Daily Weather History Graph

Search for Another Location

Airport:

Trip Planner

Search our weather history database for the weather conditions in past years. The results will help you decide how hot, cold, wet, or windy it might be!

Date:

Astronomy

Apr. 26, 2013 Rise Set
Actual Time 6:07 AM CDT 7:53 PM CDT
Civil Twilight 5:38 AM CDT 8:22 PM CDT
Nautical Twilight 5:03 AM CDT 8:58 PM CDT
Astronomical Twilight 4:25 AM CDT 9:36 PM CDT
Moon 9:16 PM CDT 6:35 AM CDT
Length of Visible Light 14h 44m
Length of Day
13h 45m
Full, 99% of the Moon is Illuminated
Apr 26
Full
May 2
Last Quarter
May 9
New
May 17
First Quarter
May 24
Full

Hourly Weather History & Observations

Time (CDT) Temp. Windchill Dew Point Humidity Pressure Visibility Wind Dir Wind Speed Gust Speed Precip Events Conditions
12:15 AM 45.7 °F 41.5 °F 36.5 °F 70% 30.30 in 10.0 mi SSE 8.1 mph - N/A   Clear
12:35 AM 46.0 °F 41.9 °F 36.5 °F 69% 30.30 in 10.0 mi SSE 8.1 mph - N/A   Clear
12:55 AM 46.0 °F 41.9 °F 36.1 °F 68% 30.30 in 10.0 mi SE 8.1 mph - N/A   Clear
1:15 AM 45.5 °F 41.3 °F 36.5 °F 71% 30.30 in 10.0 mi SSE 8.1 mph - N/A   Clear
1:35 AM 45.7 °F 41.5 °F 36.5 °F 70% 30.30 in 10.0 mi SSE 8.1 mph - N/A   Clear
1:55 AM 45.7 °F 41.0 °F 36.7 °F 71% 30.29 in 10.0 mi SSE 9.2 mph - N/A   Clear
2:15 AM 46.4 °F 41.5 °F 36.5 °F 68% 30.29 in 10.0 mi SSE 10.4 mph - N/A   Clear
2:35 AM 46.4 °F 41.5 °F 36.5 °F 68% 30.28 in 10.0 mi SE 10.4 mph - N/A   Clear
2:55 AM 46.8 °F - 36.3 °F 67% 30.28 in 10.0 mi SSE 9.2 mph - N/A   Clear
3:15 AM 45.7 °F 41.5 °F 36.5 °F 70% 30.28 in 10.0 mi SE 8.1 mph - N/A   Clear
3:35 AM 45.0 °F 40.6 °F 36.7 °F 73% 30.28 in 10.0 mi SSE 8.1 mph - N/A   Clear
3:55 AM 45.3 °F 41.1 °F 36.5 °F 71% 30.28 in 10.0 mi SE 8.1 mph - N/A   Clear
4:15 AM 44.8 °F 41.0 °F 36.9 °F 74% 30.29 in 10.0 mi SSE 6.9 mph - N/A   Clear
4:35 AM 44.6 °F 40.2 °F 37.6 °F 76% 30.28 in 10.0 mi SSE 8.1 mph - N/A   Scattered Clouds
4:55 AM 45.0 °F 40.6 °F 37.4 °F 75% 30.27 in 10.0 mi SSE 8.1 mph - N/A   Scattered Clouds
5:15 AM 44.6 °F 40.7 °F 37.4 °F 76% 30.28 in 10.0 mi SSE 6.9 mph - N/A   Clear
5:35 AM 44.4 °F 40.5 °F 37.4 °F 76% 30.26 in 10.0 mi SSE 6.9 mph - N/A   Clear
5:55 AM 45.3 °F 40.1 °F 37.6 °F 74% 30.27 in 10.0 mi SSE 10.4 mph - N/A   Clear
6:15 AM 46.4 °F 41.5 °F 37.8 °F 72% 30.27 in 10.0 mi SSE 10.4 mph - N/A   Clear
6:55 AM 47.7 °F - 38.7 °F 71% 30.28 in 10.0 mi SSE 12.7 mph - N/A   Clear
7:15 AM 48.6 °F - 39.2 °F 70% 30.28 in 10.0 mi SSE 13.8 mph - N/A   Clear
7:35 AM 49.3 °F - 39.6 °F 69% 30.28 in 10.0 mi SSE 15.0 mph - N/A   Clear
7:55 AM 50.0 °F - 40.1 °F 69% 30.28 in 10.0 mi SSE 11.5 mph - N/A   Clear
8:15 AM 50.7 °F - 41.0 °F 69% 30.28 in 10.0 mi SSE 12.7 mph - N/A   Clear
8:35 AM 51.6 °F - 41.2 °F 68% 30.30 in 10.0 mi South 12.7 mph - N/A   Clear
8:55 AM 52.7 °F - 41.7 °F 66% 30.30 in 10.0 mi South 11.5 mph - N/A   Clear
9:15 AM 53.6 °F - 42.4 °F 66% 30.30 in 10.0 mi South 12.7 mph - N/A   Scattered Clouds
9:35 AM 54.9 °F - 43.3 °F 65% 30.31 in 10.0 mi South 12.7 mph - N/A   Scattered Clouds
9:55 AM 57.0 °F - 43.9 °F 61% 30.31 in 10.0 mi SSW 11.5 mph - N/A   Scattered Clouds
10:15 AM 58.6 °F - 43.3 °F 57% 30.32 in 10.0 mi SSW 15.0 mph 20.7 mph N/A   Mostly Cloudy
10:35 AM 59.4 °F - 43.7 °F 56% 30.32 in 10.0 mi SSW 16.1 mph 21.9 mph N/A   Overcast
10:55 AM 60.8 °F - 44.4 °F 55% 30.32 in 10.0 mi SSW 16.1 mph 23.0 mph N/A   Scattered Clouds
11:15 AM 63.5 °F - 46.6 °F 54% 30.33 in 10.0 mi SW 23.0 mph 28.8 mph N/A   Scattered Clouds
11:35 AM 63.0 °F - 45.5 °F 53% 30.33 in 10.0 mi SW 24.2 mph 29.9 mph N/A   Scattered Clouds
11:55 AM 61.7 °F - 45.0 °F 54% 30.33 in 10.0 mi SW 18.4 mph 31.1 mph N/A   Overcast
12:15 PM 61.7 °F - 44.6 °F 53% 30.32 in 10.0 mi SW 13.8 mph 23.0 mph N/A   Overcast
12:35 PM 62.4 °F - 43.0 °F 49% 30.31 in 10.0 mi SSW 17.3 mph 27.6 mph N/A   Overcast
12:55 PM 62.8 °F - 43.5 °F 49% 30.31 in 10.0 mi SW 16.1 mph 25.3 mph N/A   Overcast
1:15 PM 62.8 °F - 43.9 °F 50% 30.30 in 10.0 mi SSW 17.3 mph - N/A   Overcast
1:35 PM 62.2 °F - 45.3 °F 54% 30.30 in 10.0 mi SSW 18.4 mph 23.0 mph N/A   Overcast
1:55 PM 63.7 °F - 44.4 °F 50% 30.31 in 10.0 mi SSW 19.6 mph 25.3 mph N/A   Overcast
2:15 PM 63.7 °F - 44.8 °F 50% 30.30 in 10.0 mi SSW 18.4 mph 24.2 mph N/A   Overcast
2:35 PM 63.3 °F - 45.0 °F 51% 30.30 in 10.0 mi SSW 17.3 mph 20.7 mph N/A   Overcast
2:55 PM 63.7 °F - 45.1 °F 51% 30.29 in 10.0 mi SSW 17.3 mph - N/A   Overcast
3:15 PM 64.6 °F - 44.8 °F 49% 30.28 in 10.0 mi SSW 19.6 mph 25.3 mph N/A   Scattered Clouds
3:35 PM 65.3 °F - 44.6 °F 47% 30.27 in 10.0 mi South 20.7 mph 26.5 mph N/A   Scattered Clouds
3:55 PM 65.7 °F - 45.1 °F 47% 30.26 in 10.0 mi SSW 18.4 mph 24.2 mph N/A   Scattered Clouds
4:15 PM 64.6 °F - 45.3 °F 50% 30.25 in 10.0 mi South 17.3 mph - N/A   Mostly Cloudy
4:35 PM 64.4 °F - 44.2 °F 48% 30.24 in 10.0 mi South 15.0 mph 21.9 mph N/A   Scattered Clouds
4:55 PM 64.4 °F - 44.6 °F 49% 30.25 in 10.0 mi SSW 15.0 mph - N/A   Scattered Clouds
5:15 PM 64.0 °F - 44.6 °F 49% 30.25 in 10.0 mi South 17.3 mph 23.0 mph N/A   Mostly Cloudy
5:35 PM 64.4 °F - 45.3 °F 50% 30.26 in 10.0 mi South 15.0 mph - N/A   Mostly Cloudy
5:55 PM 63.3 °F - 44.6 °F 50% 30.27 in 10.0 mi South 13.8 mph - N/A   Scattered Clouds
6:15 PM 63.5 °F - 44.8 °F 51% 30.28 in 10.0 mi SSW 13.8 mph 18.4 mph N/A   Scattered Clouds
6:35 PM 62.4 °F - 44.8 °F 52% 30.27 in 10.0 mi South 15.0 mph - N/A   Scattered Clouds
6:55 PM 61.3 °F - 45.5 °F 56% 30.28 in 10.0 mi South 12.7 mph 17.3 mph N/A   Mostly Cloudy
7:15 PM 60.8 °F - 45.9 °F 58% 30.27 in 10.0 mi South 10.4 mph - N/A   Overcast
7:35 PM 59.9 °F - 46.0 °F 60% 30.27 in 10.0 mi South 11.5 mph - N/A   Scattered Clouds
7:55 PM 58.6 °F - 46.2 °F 63% 30.28 in 10.0 mi South 8.1 mph - N/A   Clear
8:15 PM 57.6 °F - 46.4 °F 66% 30.28 in 10.0 mi South 5.8 mph - N/A   Mostly Cloudy
8:35 PM 57.2 °F - 46.6 °F 68% 30.28 in 10.0 mi South 5.8 mph - N/A   Mostly Cloudy
8:55 PM 56.1 °F - 46.6 °F 70% 30.28 in 10.0 mi South 6.9 mph - N/A   Mostly Cloudy
9:15 PM 55.2 °F - 46.8 °F 73% 30.29 in 10.0 mi South 6.9 mph - N/A   Scattered Clouds
9:35 PM 54.9 °F - 46.6 °F 74% 30.30 in 10.0 mi South 5.8 mph - N/A   Scattered Clouds
9:55 PM 54.3 °F - 46.4 °F 75% 30.30 in 10.0 mi SSE 5.8 mph - N/A   Scattered Clouds
10:15 PM 54.0 °F - 47.1 °F 78% 30.31 in 10.0 mi South 6.9 mph - N/A   Clear
10:35 PM 54.5 °F - 47.3 °F 77% 30.30 in 10.0 mi South 9.2 mph - N/A   Clear
10:55 PM 54.1 °F - 47.3 °F 78% 30.30 in 10.0 mi South 9.2 mph - N/A   Clear
11:15 PM 53.6 °F - 47.1 °F 79% 30.30 in 10.0 mi South 8.1 mph - N/A   Clear
11:35 PM 52.9 °F - 46.8 °F 80% 30.30 in 10.0 mi South 6.9 mph - N/A   Clear
11:55 PM 52.9 °F - 46.9 °F 80% 30.30 in 10.0 mi South 5.8 mph - N/A   Clear